www.pogodaiklimat.ru

Погода и климат >> Архив погоды >> Россия >> Калмыкия >> Городовиковск


ПОГОДА в Городовиковске

  • Прогноз погоды в Городовиковске
  • Монитор погоды в Городовиковске

АРХИВ ПОГОДЫ в Городовиковске

Время (UTC), дата Ветер
(напр.,м/с)
 
Видим.   Явления Облачность Т
(С)
Тd
(С)
f
(%)
Тe
(С)
Тes
(С)
Комфортность P
(гПа)
Po
(гПа)
Тmin
(С)
Tmax
(С)
R
(мм)
R24
(мм)
S
(см)
00 19.08 СЗ 1 20 км 6/0
[Ci fib]
+20.4 +18.4 88 +25 +25 комфорт 1011.7 1001.6
03 19.08 З 2 20 км 10/0
[Cs]
+19.6 +17.9 90 +23 +23 комфорт 1013.0 1002.9 +19.4 0.0
06 19.08 З 2 20 км 8/0
[Ac trans Cs]
+25.6 +18.8 66 +31 +35 очень
душно
1013.8 1003.9
09 19.08 СЗ 3 20 км 9/0
[Ac trans Ci]
+31.9 +15.3 37 +34 +41 душно 1004.1
12 19.08 С 3 20 км ясно +33.8 +13.9 30 +35 +43 очень
жарко
1013.5 1003.8
15 19.08 С 2 20 км ясно +33.1 +13.6 31 +34 +35 очень
жарко
1013.8 1004.1 +34.4
18 19.08 С 2 20 км 6/0
[Ac trans]
+26.7 +17.7 58 +31 +31 душно 1015.5 1005.6
21 19.08 С 1 20 км ясно +23.2 +17.4 70 +29 +29 душно 1015.4 1005.8
00 20.08 С 1 20 км 8/0
[Ac trans Ci fib]
+19.2 +16.4 84 +22 +22 комфорт 1016.0 1005.8
03 20.08 штиль 0 20 км 10/4 600 м
[Sc Ac trans Cs]
+18.0 +16.4 90 +18 +18 1016.5 1006.3 +17.5
06 20.08 СВ 2 20 км 10/0
[Cs]
+27.5 +15.5 48 +30 +37 жарко 1016.6 1006.7
09 20.08 С 3 20 км 10/0
[Cs]
+34.2 +13.2 28 +35 +45 очень
жарко
1015.4 1005.7
12 20.08 20 км 10/0
[Cs]
+35.1 +16.7 34 1014.2 1004.5
15 20.08 СВ 2 20 км 10/0
[Cs]
+33.8 +11.9 26 +34 +34 очень
жарко
1013.9 1004.2 +35.7
18 20.08 СВ 2 20 км ясно +28.3 +13.3 40 +30 +30 жарко 1014.2 1004.3
21 20.08 В 3 20 км 6/0
[Ci fib]
+26.8 +9.3 33 +27 +27 жарко 1014.4 1004.5
00 21.08 В 3 20 км ясно +22.8 +10.1 45 +25 +25 комфорт 1014.2 1004.1
03 21.08 В 3 20 км 10/4 600 м
[Sc Ac trans Cs]
+20.2 +11.2 56 +22 +22 комфорт 1015.1 1004.9 +20.2
06 21.08 В 3 20 км 9/0
[Cs]
+27.1 +13.0 42 +29 +34 жарко 1015.3 1005.4 +20.1
09 21.08 В 4 20 км 8/0
[Ci fib]
+34.9 +6.3 17 +33 +41 жарко 1013.9 1004.2
12 21.08 В 4 20 км ясно +36.8 +3.8 13 +34 +40 очень
жарко
1012.5 1002.9
15 21.08 В 3 20 км ясно +35.5 +2.4 13 +32 +33 жарко 1011.7 1002.0 +37.0
18 21.08 СВ 2 20 км ясно +28.9 +5.3 22 +27 +27 жарко 1012.0 1002.2
21 21.08 В 2 20 км ясно +24.7 +6.3 31 +25 +25 комфорт 1012.3 1002.3
00 22.08 В 2 20 км ясно +21.6 +6.8 38 +22 +22 комфорт 1012.9 1002.8
03 22.08 В 2 20 км 3/0
[Ci fib]
+20.2 +10.0 52 +22 +22 комфорт 1013.3 1003.1 +19.9
06 22.08 В 3 20 км 8/0
[Cc]
+30.3 +6.3 22 +29 +34 жарко 1013.3 1003.5
09 22.08 В 4-11
{11}
20 км 10/0
[Cs]
+36.0 +3.7 13 +33 +41 жарко 1012.3 1002.7
12 22.08 В 4
{11}
20 км 10/0
[Cs]
+37.5 +3.3 12 +34 +39 очень
жарко
1011.4 1001.8
15 22.08 В 3 20 км 8/0
[Cc]
+35.9 +4.1 14 +33 +33 жарко 1011.0 1001.4 +37.8
18 22.08 СВ 2 20 км 6/0
[Ci fib]
+25.2 +7.5 32 +25 +25 комфорт 1012.3 1002.3
21 22.08 В 2 20 км 6/0
[Ci fib]
+25.2 +9.2 36 +26 +26 жарко 1012.3 1002.3
00 23.08 В 2 20 км 10/0
[Ci fib]
+23.3 +8.6 39 +25 +25 комфорт 1012.4 1002.3
03 23.08 В 2 20 км 10/0
[Cc]
+21.3 +9.4 47 +23 +23 комфорт 1013.7 1003.6 +21.1
06 23.08 СВ 3 20 км 6/0
[Ac trans Cc]
+30.7 +7.6 24 +30 +34 жарко 1013.3 1003.5
09 23.08 СВ 3
{11}
20 км 9/4 600 м
[Sc Ac trans Ci]
+35.8 +6.6 17 +34 +38 очень
жарко
1012.9 1003.3
12 23.08 В 4
{10}
20 км 10/8 600 м
[Sc Ac trans Ci]
+37.9 +4.5 13 +35 +36 очень
жарко
1011.8 1002.2
15 23.08 СВ 3
{11}
20 км 10/4 600 м
[Sc Ac trans Cc]
+35.0 +4.9 15 +32 +32 жарко 1011.8 1002.1 +38.2
18 23.08 СВ 2 20 км ясно +29.5 +6.4 23 +28 +28 жарко 1012.7 1002.8
21 23.08 СВ 3 20 км 3/0
[Ac trans]
+27.8 +10.0 33 +28 +28 жарко 1012.5 1002.6
00 24.08 СВ 2 20 км 4/0
[Ac trans Ci]
+24.5 +10.2 40 +25 +25 комфорт 1013.2 1003.2
03 24.08 СВ 3 20 км 10/3 600 м
[Sc Cs]
+23.0 +11.7 49 +25 +26 комфорт 1013.7 1003.7 +23.0
06 24.08 В 4 20 км 8/0
[Ac trans Ci fib]
+29.9 +10.3 30 +30 +33 жарко 1013.7 1003.8
09 24.08 СВ 5-10
{12}
20 км 9/0
[Cs]
+36.5 +6.3 16 +34 +40 очень
жарко
1012.0 1002.4
12 24.08 В 4
{12}
20 км 10/5 600 м
[Sc Ac As Ci]
+37.4 +4.8 13 +34 +36 очень
жарко
1011.2 1001.6
15 24.08 В 3
{11}
20 км 10/6 600 м
[Sc Ac As Cs]
+35.4 +5.2 15 +33 +33 жарко 1011.6 1002.0 +39.0
18 24.08 СВ 4 20 км {ливн. осадки} 10/5 600 м
[Sc Ac As]
+31.6 +10.7 28 +32 +32 жарко 1012.9 1003.1
21 24.08 СВ 3 20 км 10/3 600 м
[Sc Ac As Cs]
+28.9 +10.2 31 +29 +29 жарко 1012.4 1002.5
00 25.08 СВ 2 20 км 10/3 600 м
[Sc Ac As Ci fib]
+27.2 +9.7 33 +28 +28 жарко 1012.3 1002.4
03 25.08 СВ 2 20 км в посл. час гроза 10/6 600 м
[Sc diur, vesp Ac As]
+25.8 +12.1 42 +27 +27 жарко 1013.5 1003.6 +25.8 0.0
06 25.08 В 3 20 км {гроза} 10/8 600 м
[Sc Ac As]
+27.9 +15.2 46 +31 +31 душно 1014.7 1004.8 +25.2
09 25.08 В 5
{12}
20 км 10/6 600 м
[Sc Ac trans Cs]
+31.9 +13.6 33 +33 +35 жарко 1014.5 1004.8
12 25.08 СВ 6
{12}
20 км 10/8 600 м
[Sc Ac As]
+29.9 +13.4 36 +31 +31 жарко 1015.3 1005.4
15 25.08 В 3
{14}
20 км 9/3 600 м
[Sc Ac trans Cs]
+27.3 +12.9 41 +29 +29 жарко 1016.7 1006.8 +33.2
18 25.08 В 2 20 км ясно +22.9 +14.4 59 +27 +27 душно 1018.3 1008.2

 

Местоположение метеостанции Городовиковск (Калмыкия, Россия): широта 46.07 долгота 41.97 высота над уровнем моря 87 м.

В архиве по умолчанию представлена погода в Городовиковске за последнюю неделю. Архивные данные за месяц целиком и за предыдущие месяцы, начиная с января 2011 года, Вы можете получить, выбрав интересующий диапазон дат из раскрывающегося списка и нажав кнопку "Ввод!".


*Определитесь, кто Вы:
робот инопланетянин человек

Внимание! Время в таблицах - всемирное. Для получения местного времени необходимо прибавить поправку, которая равна 3 ч.

Смотрите также архив погоды в соседних городах и на ближайших метеорологических станциях:

Погода в Красногвардейском (Ставропольский край, Россия) (46 км)
Погода в Гиганте (Ростовская область, Россия) (69 км)
Погода в Изобильном (Ставропольский край, Россия) (81 км)
Погода в Белой Глине (Краснодарский край, Россия) (84 км)
Погода в Новоалександровске (Ставропольский край, Россия) (87 км)
Погода в Светлограде (Ставропольский край, Россия) (105 км)
Погода в Ставрополе (Ставропольский край, Россия) (106 км)
Погода в Дивном (Ставропольский край, Россия) (108 км)
Погода в Зимовниках (Ростовская область, Россия) (126 км)
Погода в Кропоткине (Краснодарский край, Россия) (130 км)

Пояснения к столбцам:

Ветер - указаны скорость ветра в м/с - средняя за 10 мин, порывы в срок и между сроками (в фигурных скобках) и направление, откуда дует ветер: С - северный, СВ - северо-восточный, В - восточный, ЮВ - юго-восточный, Ю - южный, ЮЗ - юго-западный, З - западный, СЗ - северо-западный.
Видимость - горизонтальная дальность видимости в метрах или километрах. При видимости от 1 до 10 км при отсутствии осадков обычно наблюдается дымка, при ухудшении видимости до 1 км и менее - туман. В сухую погоду видимость может ухудшаться дымом, пылью или мглою.
Явления - указаны атмосферные явления, наблюдавшиеся в срок или в последний час перед сроком; фигурными скобками обозначены явления, наблюдавшиеся между сроками (за 1-3 часа до срока); квадратными скобками обозначены град или гололедные отложения с указанием их диаметра в мм.
Облачность - указаны через наклонную черту общая и нижняя облачность в баллах и высота нижней границы облаков в метрах; квадратными скобками обозначены формы облаков: Ci - перистые, Cs - перисто-слоистые, Cc - перисто-кучевые, Ac - высококучевые, As - высокослоистые, Sc - слоисто-кучевые, Ns - слоисто-дождевые, Cu - кучевые, Cb - кучево-дождевые. Подробнее классификацию облаков см. в Атласе облаков (PDF).
T - Температура воздуха - температура, измеренная на высоте 2 м над землей.
Td - Температура точки росы - температура, при понижении до которой содержащийся в воздухе водяной пар достигнет насыщения.
f - Относительная влажность воздуха - влажноcть воздуха, измеренная на высоте 2 м над землей.
Te - Эффективная температура - температура, которую ощущает одетый по сезону человек в тени. Характеристика душности погоды. При расчете учитывается влияние влажности воздуха и скорости ветра на теплоощущения человека.
Tes - Эффективная температура на солнце - температура, которую ощущает человек, с поправкой на солнечный нагрев. Характеристика знойности погоды. Зависит от высоты солнца над горизонтом, облачности и скорости ветра. Ночью, в пасмурную погоду, а также при ветре 12 м/с и более поправка равна нулю.
P - Атмосферное давление - приведенное к уровню моря атмосферное давление.
Po - Атмосферное давление - измеренное на уровне метеостанции атмосферное давление.
Tmin - Минимальная температура - минимум температуры воздуха на высоте 2 м над землей.
Tmax - Максимальная температура - максимум температуры воздуха на высоте 2 м над землей.
R - Количество осадков - Количество выпавших осадков за период времени, мм. При наведении курсора мыши на число - период времени, за который выпало указанное количество осадков.
R24 - Количество осадков - Количество выпавших осадков за 24 часа, мм.
S - Снежный покров - Высота снежного покрова, см. При наведении курсора мыши на число - состояние снежного покрова и степень покрытия местности в баллах.